Time,TemperatureF,DewpointF,PressureIn,WindDirection,WindDirectionDegrees,WindSpeedMPH,WindSpeedGustMPH,Humidity,HourlyPrecipIn,Conditions,Clouds,dailyrainin,SoftwareType,DateUTC
2013-12-16 00:02:00,21.0,17.8,32.22,NNW,338,0.0,0.0,76,0.00,,,0.00,meteohub,2013-12-16 06:02:00,
2013-12-16 00:07:00,21.0,17.8,32.22,NNW,338,0.0,0.0,76,0.00,,,0.00,meteohub,2013-12-16 06:07:00,
2013-12-16 00:12:00,21.0,18.0,32.22,NNW,338,0.0,0.0,76,0.00,,,0.00,meteohub,2013-12-16 06:12:00,
2013-12-16 00:17:00,21.0,17.8,32.22,NNW,338,0.0,0.0,76,0.00,,,0.00,meteohub,2013-12-16 06:17:00,
2013-12-16 00:22:00,21.0,18.3,32.22,NNW,338,0.0,0.0,77,0.00,,,0.00,meteohub,2013-12-16 06:22:00,
2013-12-16 00:27:00,21.0,18.3,32.22,NNW,338,0.0,0.0,77,0.00,,,0.00,meteohub,2013-12-16 06:27:00,
2013-12-16 00:32:00,21.0,17.8,32.22,NNW,338,0.0,0.0,76,0.00,,,0.00,meteohub,2013-12-16 06:32:00,
2013-12-16 00:37:00,21.0,17.6,32.22,NNW,338,0.0,0.0,76,0.00,,,0.00,meteohub,2013-12-16 06:37:00,
2013-12-16 00:42:00,20.8,17.6,32.22,NNW,338,0.0,0.0,76,0.00,,,0.00,meteohub,2013-12-16 06:42:00,
2013-12-16 00:47:00,20.8,17.6,32.22,NNW,338,0.0,0.0,76,0.00,,,0.00,meteohub,2013-12-16 06:47:00,
2013-12-16 00:52:00,20.8,17.2,32.22,NNW,338,0.0,0.0,76,0.00,,,0.00,meteohub,2013-12-16 06:52:00,
2013-12-16 00:57:00,20.8,17.4,32.22,NNW,338,0.0,0.0,76,0.00,,,0.00,meteohub,2013-12-16 06:57:00,
2013-12-16 01:02:00,20.7,17.4,32.22,NNW,338,0.0,0.0,76,0.00,,,0.00,meteohub,2013-12-16 07:02:00,
2013-12-16 01:07:00,20.7,17.2,32.22,NNW,338,0.0,0.0,76,0.00,,,0.00,meteohub,2013-12-16 07:07:00,
2013-12-16 01:12:00,20.7,17.6,32.22,NNW,338,0.0,0.0,77,0.00,,,0.00,meteohub,2013-12-16 07:12:00,
2013-12-16 01:17:00,20.5,17.6,32.22,NNW,338,0.0,0.0,77,0.00,,,0.00,meteohub,2013-12-16 07:17:00,
2013-12-16 01:22:00,20.5,17.1,32.22,NNW,338,0.0,0.0,76,0.00,,,0.00,meteohub,2013-12-16 07:22:00,
2013-12-16 01:27:00,20.3,17.6,32.22,NNW,338,0.0,0.0,77,0.00,,,0.00,meteohub,2013-12-16 07:27:00,
2013-12-16 01:32:00,20.3,17.1,32.22,NNW,338,0.0,0.0,76,0.00,,,0.00,meteohub,2013-12-16 07:32:00,
2013-12-16 01:37:00,20.3,17.1,32.22,NNW,338,0.0,0.0,76,0.00,,,0.00,meteohub,2013-12-16 07:37:00,
2013-12-16 01:42:00,20.1,16.9,32.22,NNW,338,0.0,0.0,76,0.00,,,0.00,meteohub,2013-12-16 07:42:00,
2013-12-16 01:47:00,20.1,16.7,32.22,NNW,338,0.0,0.0,76,0.00,,,0.00,meteohub,2013-12-16 07:47:00,
2013-12-16 01:52:00,20.1,16.9,32.22,NNW,338,0.0,0.0,76,0.00,,,0.00,meteohub,2013-12-16 07:52:00,
2013-12-16 01:57:00,20.3,16.9,32.22,NE,43,0.0,0.0,76,0.00,,,0.00,meteohub,2013-12-16 07:57:00,
2013-12-16 02:02:00,20.5,17.2,32.22,NE,43,0.0,0.0,77,0.00,,,0.00,meteohub,2013-12-16 08:02:00,
2013-12-16 02:07:00,20.5,17.2,32.22,NE,43,0.0,0.0,77,0.00,,,0.00,meteohub,2013-12-16 08:07:00,
2013-12-16 02:12:00,20.5,17.4,32.22,NE,43,0.0,0.0,77,0.00,,,0.00,meteohub,2013-12-16 08:12:00,
2013-12-16 02:17:00,20.5,16.9,32.22,NE,47,0.0,0.0,76,0.00,,,0.00,meteohub,2013-12-16 08:17:00,
2013-12-16 02:22:00,20.5,16.9,32.22,NE,47,0.0,0.0,76,0.00,,,0.00,meteohub,2013-12-16 08:22:00,
2013-12-16 02:27:00,20.5,16.7,32.22,NE,48,0.0,0.0,76,0.00,,,0.00,meteohub,2013-12-16 08:27:00,
2013-12-16 02:32:00,20.3,16.7,32.22,NE,47,0.0,0.0,76,0.00,,,0.00,meteohub,2013-12-16 08:32:00,
2013-12-16 02:37:00,20.3,16.5,32.22,NE,47,0.0,0.0,76,0.00,,,0.00,meteohub,2013-12-16 08:37:00,
2013-12-16 02:42:00,20.1,16.5,32.22,NE,47,0.0,0.0,76,0.00,,,0.00,meteohub,2013-12-16 08:42:00,
2013-12-16 02:47:00,20.1,16.5,32.22,NE,47,0.0,0.0,76,0.00,,,0.00,meteohub,2013-12-16 08:47:00,
2013-12-16 02:52:00,20.1,16.5,32.22,NE,47,0.0,0.0,76,0.00,,,0.00,meteohub,2013-12-16 08:52:00,
2013-12-16 02:57:00,20.1,16.5,32.22,NE,47,0.0,0.0,76,0.00,,,0.00,meteohub,2013-12-16 08:57:00,
2013-12-16 03:02:00,19.9,16.5,32.22,NE,47,0.0,0.0,76,0.00,,,0.00,meteohub,2013-12-16 09:02:00,
2013-12-16 03:07:00,19.9,16.3,32.22,NE,47,0.0,0.0,76,0.00,,,0.00,meteohub,2013-12-16 09:07:00,
2013-12-16 03:12:00,19.9,16.3,32.22,NE,47,0.0,0.0,76,0.00,,,0.00,meteohub,2013-12-16 09:12:00,
2013-12-16 03:17:00,19.9,16.3,32.22,NE,48,0.0,0.0,76,0.00,,,0.00,meteohub,2013-12-16 09:17:00,
2013-12-16 03:22:00,19.9,16.2,32.22,NE,47,0.0,0.0,76,0.00,,,0.00,meteohub,2013-12-16 09:22:00,
2013-12-16 03:27:00,19.8,16.2,32.22,NE,47,0.0,0.0,76,0.00,,,0.00,meteohub,2013-12-16 09:27:00,
2013-12-16 03:33:00,19.6,16.0,32.22,NE,47,0.0,0.0,76,0.00,,,0.00,meteohub,2013-12-16 09:33:00,
2013-12-16 03:38:00,19.4,15.8,32.22,NE,47,0.0,0.0,76,0.00,,,0.00,meteohub,2013-12-16 09:38:00,
2013-12-16 03:43:00,19.4,15.8,32.22,NE,47,0.0,0.0,76,0.00,,,0.00,meteohub,2013-12-16 09:43:00,
2013-12-16 03:48:00,19.2,15.6,32.22,NE,47,0.0,0.0,75,0.00,,,0.00,meteohub,2013-12-16 09:48:00,
2013-12-16 03:53:00,18.9,15.3,32.22,NE,47,0.0,0.0,75,0.00,,,0.00,meteohub,2013-12-16 09:53:00,
2013-12-16 03:58:00,18.5,15.1,32.22,NE,47,0.0,0.0,75,0.00,,,0.00,meteohub,2013-12-16 09:58:00,
2013-12-16 04:03:00,18.3,14.9,32.22,NE,48,0.0,0.0,75,0.00,,,0.00,meteohub,2013-12-16 10:03:00,
2013-12-16 04:08:00,18.1,14.9,32.22,NE,47,0.0,0.0,75,0.00,,,0.00,meteohub,2013-12-16 10:08:00,
2013-12-16 04:13:00,18.1,14.9,32.22,NE,48,0.0,0.0,75,0.00,,,0.00,meteohub,2013-12-16 10:13:00,
2013-12-16 04:19:00,18.0,14.7,32.22,NE,47,0.0,0.0,75,0.00,,,0.00,meteohub,2013-12-16 10:19:00,
2013-12-16 04:24:00,17.8,14.5,32.22,NE,47,0.0,0.0,75,0.00,,,0.00,meteohub,2013-12-16 10:24:00,
2013-12-16 04:29:00,17.6,14.5,32.22,NE,47,0.0,0.0,75,0.00,,,0.00,meteohub,2013-12-16 10:29:00,
2013-12-16 04:34:00,17.4,14.4,32.22,NE,48,0.0,0.0,75,0.00,,,0.00,meteohub,2013-12-16 10:34:00,
2013-12-16 04:39:00,17.2,14.4,32.22,NE,47,0.0,0.0,75,0.00,,,0.00,meteohub,2013-12-16 10:39:00,
2013-12-16 04:44:00,17.1,13.8,32.22,NE,47,0.0,0.0,74,0.00,,,0.00,meteohub,2013-12-16 10:44:00,
2013-12-16 04:49:00,16.9,13.8,32.22,NE,47,0.0,0.0,74,0.00,,,0.00,meteohub,2013-12-16 10:49:00,
2013-12-16 04:54:00,16.9,13.8,32.22,NE,47,0.0,0.0,74,0.00,,,0.00,meteohub,2013-12-16 10:54:00,
2013-12-16 04:59:00,16.9,13.6,32.22,NE,47,0.0,0.0,74,0.00,,,0.00,meteohub,2013-12-16 10:59:00,
2013-12-16 05:04:00,16.9,13.8,32.22,NE,47,0.0,0.0,75,0.00,,,0.00,meteohub,2013-12-16 11:04:00,
2013-12-16 05:09:00,17.1,14.0,32.22,NE,47,0.0,0.0,75,0.00,,,0.00,meteohub,2013-12-16 11:09:00,
2013-12-16 05:14:00,17.1,14.4,32.22,NE,48,0.0,0.0,76,0.00,,,0.00,meteohub,2013-12-16 11:14:00,
2013-12-16 05:20:00,17.2,14.5,32.22,NE,47,0.0,0.0,76,0.00,,,0.00,meteohub,2013-12-16 11:20:00,
2013-12-16 05:25:00,17.1,14.4,32.22,NE,47,0.0,0.0,76,0.00,,,0.00,meteohub,2013-12-16 11:25:00,
2013-12-16 05:30:00,17.1,14.4,32.22,NE,48,0.0,0.0,76,0.00,,,0.00,meteohub,2013-12-16 11:30:00,
2013-12-16 05:35:00,16.9,14.0,32.22,NE,48,0.0,0.0,76,0.00,,,0.00,meteohub,2013-12-16 11:35:00,
2013-12-16 05:40:00,16.7,14.0,32.22,NE,48,0.0,0.0,76,0.00,,,0.00,meteohub,2013-12-16 11:40:00,
2013-12-16 05:45:00,16.5,14.0,32.22,NE,47,0.0,0.0,76,0.00,,,0.00,meteohub,2013-12-16 11:45:00,
2013-12-16 05:50:00,16.5,14.0,32.22,NE,48,0.0,0.0,76,0.00,,,0.00,meteohub,2013-12-16 11:50:00,
2013-12-16 05:55:00,16.5,14.0,32.22,NE,47,0.0,0.0,76,0.00,,,0.00,meteohub,2013-12-16 11:55:00,
2013-12-16 06:00:00,16.7,14.0,32.22,NE,47,0.0,0.0,76,0.00,,,0.00,meteohub,2013-12-16 12:00:00,
2013-12-16 06:05:00,16.7,14.0,32.22,NE,48,0.0,0.0,76,0.00,,,0.00,meteohub,2013-12-16 12:05:00,
2013-12-16 06:10:00,16.7,13.8,32.22,NE,48,0.0,0.0,76,0.00,,,0.00,meteohub,2013-12-16 12:10:00,
2013-12-16 06:15:00,16.5,13.6,32.22,NE,47,0.0,0.0,76,0.00,,,0.00,meteohub,2013-12-16 12:15:00,
2013-12-16 06:21:00,16.5,13.6,32.22,NE,48,0.0,0.0,76,0.00,,,0.00,meteohub,2013-12-16 12:21:00,
2013-12-16 06:26:00,16.5,13.6,32.22,NE,48,0.0,0.0,76,0.00,,,0.00,meteohub,2013-12-16 12:26:00,
2013-12-16 06:31:00,16.5,13.6,32.22,NE,48,0.0,0.0,76,0.00,,,0.00,meteohub,2013-12-16 12:31:00,
2013-12-16 06:36:00,16.5,13.5,32.22,NE,48,0.0,0.0,76,0.00,,,0.00,meteohub,2013-12-16 12:36:00,
2013-12-16 06:41:00,16.5,13.5,32.22,NE,47,0.0,0.0,76,0.00,,,0.00,meteohub,2013-12-16 12:41:00,
2013-12-16 06:46:00,16.2,13.1,32.22,NE,47,0.0,0.0,76,0.00,,,0.00,meteohub,2013-12-16 12:46:00,
2013-12-16 06:51:00,16.2,13.3,32.22,NE,47,0.0,0.0,76,0.00,,,0.00,meteohub,2013-12-16 12:51:00,
2013-12-16 06:56:00,16.2,13.5,32.22,NE,47,0.0,0.0,76,0.00,,,0.00,meteohub,2013-12-16 12:56:00,
2013-12-16 07:01:00,16.2,13.6,32.22,NE,47,0.0,0.0,77,0.00,,,0.00,meteohub,2013-12-16 13:01:00,
2013-12-16 07:07:00,16.3,13.6,32.22,NE,47,0.0,0.0,77,0.00,,,0.00,meteohub,2013-12-16 13:07:00,
2013-12-16 07:12:00,16.5,13.6,32.22,NE,47,0.0,0.0,77,0.00,,,0.00,meteohub,2013-12-16 13:12:00,
2013-12-16 07:17:00,16.5,13.6,32.22,NE,48,0.0,0.0,77,0.00,,,0.00,meteohub,2013-12-16 13:17:00,
2013-12-16 07:22:00,16.5,13.8,32.22,NE,47,0.0,0.0,77,0.00,,,0.00,meteohub,2013-12-16 13:22:00,
2013-12-16 07:27:00,16.5,13.8,32.22,NE,47,0.0,0.0,77,0.00,,,0.00,meteohub,2013-12-16 13:27:00,
2013-12-16 07:32:00,16.3,13.5,32.22,NE,46,0.0,0.0,77,0.00,,,0.00,meteohub,2013-12-16 13:32:00,
2013-12-16 07:37:00,16.0,12.9,32.22,NE,43,0.0,0.0,76,0.00,,,0.00,meteohub,2013-12-16 13:37:00,
2013-12-16 07:42:00,16.0,12.9,32.22,NE,43,0.0,0.0,76,0.00,,,0.00,meteohub,2013-12-16 13:42:00,
2013-12-16 07:47:00,15.8,12.4,32.22,East,99,0.0,0.0,76,0.00,,,0.00,meteohub,2013-12-16 13:47:00,
2013-12-16 07:52:00,16.0,12.7,32.22,NNE,12,0.0,0.0,76,0.00,,,0.00,meteohub,2013-12-16 13:52:00,
2013-12-16 07:57:00,16.2,13.1,32.22,ESE,119,0.0,0.0,77,0.00,,,0.00,meteohub,2013-12-16 13:57:00,
2013-12-16 08:02:00,16.5,13.5,32.22,North,9,0.0,0.0,78,0.00,,,0.00,meteohub,2013-12-16 14:02:00,
2013-12-16 08:07:00,16.7,14.2,32.22,North,9,0.0,0.0,78,0.00,,,0.00,meteohub,2013-12-16 14:07:00,
2013-12-16 08:12:00,16.7,14.5,32.22,North,9,0.0,0.0,78,0.00,,,0.00,meteohub,2013-12-16 14:12:00,
2013-12-16 08:17:00,16.7,14.9,32.22,North,9,0.0,0.0,78,0.00,,,0.00,meteohub,2013-12-16 14:17:00,
2013-12-16 08:22:00,16.9,14.7,32.22,North,9,0.0,0.0,77,0.00,,,0.00,meteohub,2013-12-16 14:22:00,
2013-12-16 08:27:00,17.2,15.3,32.22,North,9,0.0,0.0,77,0.00,,,0.00,meteohub,2013-12-16 14:27:00,
2013-12-16 08:32:00,17.8,16.2,32.22,North,9,0.0,0.0,78,0.00,,,0.00,meteohub,2013-12-16 14:32:00,
2013-12-16 08:37:00,18.3,16.0,32.22,North,9,0.0,0.0,77,0.00,,,0.00,meteohub,2013-12-16 14:37:00,
2013-12-16 08:42:00,18.7,16.3,32.22,North,9,0.0,0.0,77,0.00,,,0.00,meteohub,2013-12-16 14:42:00,
2013-12-16 08:47:00,19.0,16.7,32.22,WSW,254,0.0,0.0,76,0.00,,,0.00,meteohub,2013-12-16 14:47:00,
2013-12-16 08:52:00,19.6,17.4,32.22,WSW,254,0.0,0.0,76,0.00,,,0.00,meteohub,2013-12-16 14:52:00,
2013-12-16 08:57:00,20.7,17.6,32.22,SW,230,0.0,0.0,75,0.00,,,0.00,meteohub,2013-12-16 14:57:00,
2013-12-16 09:02:00,21.4,18.9,32.22,NE,38,0.0,2.0,75,0.00,,,0.00,meteohub,2013-12-16 15:02:00,
2013-12-16 09:07:00,21.9,18.0,32.22,NE,50,0.0,2.0,73,0.00,,,0.00,meteohub,2013-12-16 15:07:00,
2013-12-16 09:12:00,22.8,17.8,32.22,SW,218,0.0,3.0,72,0.00,,,0.00,meteohub,2013-12-16 15:12:00,
2013-12-16 09:17:00,23.9,18.5,32.22,SSW,212,0.0,3.0,71,0.00,,,0.00,meteohub,2013-12-16 15:17:00,
2013-12-16 09:22:00,24.8,19.8,32.22,WSW,238,0.0,3.0,71,0.00,,,0.00,meteohub,2013-12-16 15:22:00,
2013-12-16 09:27:00,25.7,19.9,32.22,SW,232,0.0,3.0,70,0.00,,,0.00,meteohub,2013-12-16 15:27:00,
2013-12-16 09:32:00,26.2,20.5,32.22,SW,232,0.0,3.0,69,0.00,,,0.00,meteohub,2013-12-16 15:32:00,
2013-12-16 09:37:00,26.6,18.7,32.22,SSW,212,0.0,2.0,66,0.00,,,0.00,meteohub,2013-12-16 15:37:00,
2013-12-16 09:42:00,26.8,19.0,32.22,SSW,200,0.0,2.0,66,0.00,,,0.00,meteohub,2013-12-16 15:42:00,
2013-12-16 09:47:00,27.3,20.3,32.22,South,187,0.0,0.0,67,0.00,,,0.00,meteohub,2013-12-16 15:47:00,
2013-12-16 09:52:00,28.0,20.5,32.22,South,176,0.0,0.0,67,0.00,,,0.00,meteohub,2013-12-16 15:52:00,
2013-12-16 09:57:00,29.1,21.9,32.22,South,184,0.0,2.0,67,0.00,,,0.00,meteohub,2013-12-16 15:57:00,
2013-12-16 10:02:00,30.2,22.3,32.22,SW,217,0.0,3.0,67,0.00,,,0.00,meteohub,2013-12-16 16:02:00,
2013-12-16 10:07:00,31.5,23.5,32.22,South,191,0.0,3.0,67,0.00,,,0.00,meteohub,2013-12-16 16:07:00,
2013-12-16 10:12:00,32.5,24.4,32.22,SW,225,0.0,3.0,66,0.00,,,0.00,meteohub,2013-12-16 16:12:00,
2013-12-16 10:17:00,33.8,26.4,32.22,WSW,245,0.0,2.0,66,0.00,,,0.00,meteohub,2013-12-16 16:17:00,
2013-12-16 10:22:00,35.1,27.0,32.22,SW,229,0.0,2.0,65,0.00,,,0.00,meteohub,2013-12-16 16:22:00,
2013-12-16 10:27:00,36.1,27.3,32.22,SW,231,0.0,3.0,63,0.00,,,0.00,meteohub,2013-12-16 16:27:00,
2013-12-16 10:32:00,37.4,27.9,32.22,SSW,213,0.0,3.0,62,0.00,,,0.00,meteohub,2013-12-16 16:32:00,
2013-12-16 10:37:00,38.1,28.2,32.22,NW,310,0.0,2.0,60,0.00,,,0.00,meteohub,2013-12-16 16:37:00,
2013-12-16 10:42:00,37.9,28.4,32.22,NNW,346,0.0,2.0,59,0.00,,,0.00,meteohub,2013-12-16 16:42:00,
2013-12-16 10:47:00,38.7,28.6,32.22,North,10,0.0,0.0,57,0.00,,,0.00,meteohub,2013-12-16 16:47:00,
2013-12-16 10:52:00,39.4,29.7,32.22,North,4,0.0,0.0,57,0.00,,,0.00,meteohub,2013-12-16 16:52:00,
2013-12-16 10:57:00,40.5,30.4,32.22,North,11,0.0,0.0,56,0.00,,,0.00,meteohub,2013-12-16 16:57:00,
2013-12-16 11:02:00,41.2,30.7,32.22,North,11,0.0,0.0,54,0.00,,,0.00,meteohub,2013-12-16 17:02:00,
2013-12-16 11:07:00,41.7,31.1,32.22,NNE,14,0.0,0.0,53,0.00,,,0.00,meteohub,2013-12-16 17:07:00,
2013-12-16 11:12:00,42.4,30.9,32.22,NNE,19,0.0,0.0,51,0.00,,,0.00,meteohub,2013-12-16 17:12:00,
2013-12-16 11:17:00,42.8,30.7,32.22,NNE,19,0.0,0.0,50,0.00,,,0.00,meteohub,2013-12-16 17:17:00,
2013-12-16 11:22:00,43.0,30.7,32.22,NNE,17,0.0,0.0,49,0.00,,,0.00,meteohub,2013-12-16 17:22:00,
2013-12-16 11:27:00,43.3,30.7,32.22,NE,47,2.0,0.0,47,0.00,,,0.00,meteohub,2013-12-16 17:27:00,
2013-12-16 11:32:00,43.2,30.4,32.22,NNE,31,0.0,2.0,46,0.00,,,0.00,meteohub,2013-12-16 17:32:00,
2013-12-16 11:37:00,43.0,29.7,32.22,NE,40,0.0,4.0,45,0.00,,,0.00,meteohub,2013-12-16 17:37:00,
2013-12-16 11:42:00,42.6,30.6,32.22,North,7,0.0,4.0,45,0.00,,,0.00,meteohub,2013-12-16 17:42:00,
2013-12-16 11:47:00,42.4,29.1,32.22,NE,35,0.0,4.0,43,0.00,,,0.00,meteohub,2013-12-16 17:47:00,
2013-12-16 11:52:00,42.4,29.8,32.22,NNE,29,0.0,4.0,43,0.00,,,0.00,meteohub,2013-12-16 17:52:00,
2013-12-16 11:57:00,43.3,28.6,32.22,WNW,285,0.0,4.0,42,0.00,,,0.00,meteohub,2013-12-16 17:57:00,
2013-12-16 12:02:00,43.7,29.3,32.22,WNW,284,0.0,4.0,42,0.00,,,0.00,meteohub,2013-12-16 18:02:00,
2013-12-16 12:07:00,43.3,27.9,32.22,WNW,284,0.0,0.0,41,0.00,,,0.00,meteohub,2013-12-16 18:07:00,
2013-12-16 12:12:00,43.0,27.9,32.22,WNW,284,0.0,0.0,41,0.00,,,0.00,meteohub,2013-12-16 18:12:00,
2013-12-16 12:17:00,43.7,28.9,32.22,WNW,284,0.0,0.0,42,0.00,,,0.00,meteohub,2013-12-16 18:17:00,
2013-12-16 12:22:00,44.1,28.8,32.22,WNW,284,0.0,0.0,41,0.00,,,0.00,meteohub,2013-12-16 18:22:00,
2013-12-16 12:27:00,44.6,29.1,32.22,WNW,284,0.0,0.0,41,0.00,,,0.00,meteohub,2013-12-16 18:27:00,
2013-12-16 12:32:00,44.6,28.8,32.22,WNW,284,0.0,0.0,41,0.00,,,0.00,meteohub,2013-12-16 18:32:00,
2013-12-16 12:37:00,44.2,28.8,32.22,WNW,284,0.0,0.0,41,0.00,,,0.00,meteohub,2013-12-16 18:37:00,
2013-12-16 12:42:00,44.4,29.7,32.22,WNW,284,0.0,0.0,41,0.00,,,0.00,meteohub,2013-12-16 18:42:00,
2013-12-16 12:47:00,44.8,29.8,32.22,WNW,284,0.0,0.0,40,0.00,,,0.00,meteohub,2013-12-16 18:47:00,
2013-12-16 12:52:00,45.5,29.5,32.22,WNW,284,0.0,0.0,40,0.00,,,0.00,meteohub,2013-12-16 18:52:00,
2013-12-16 12:57:00,46.2,29.8,32.22,WNW,284,0.0,0.0,40,0.00,,,0.00,meteohub,2013-12-16 18:57:00,
2013-12-16 13:02:00,46.2,30.2,32.22,WNW,284,0.0,0.0,40,0.00,,,0.00,meteohub,2013-12-16 19:02:00,
2013-12-16 13:07:00,45.9,30.9,32.22,NNW,343,0.0,0.0,40,0.00,,,0.00,meteohub,2013-12-16 19:07:00,
2013-12-16 13:12:00,46.0,31.5,32.22,NNW,335,0.0,0.0,40,0.00,,,0.00,meteohub,2013-12-16 19:12:00,
2013-12-16 13:17:00,46.0,31.8,32.22,NNW,338,0.0,0.0,40,0.00,,,0.00,meteohub,2013-12-16 19:17:00,
2013-12-16 13:22:00,46.6,32.0,32.22,NNW,343,0.0,0.0,40,0.00,,,0.00,meteohub,2013-12-16 19:22:00,
2013-12-16 13:27:00,46.8,32.2,32.22,NNW,337,0.0,0.0,40,0.00,,,0.00,meteohub,2013-12-16 19:27:00,
2013-12-16 13:32:00,46.9,31.6,32.22,NNW,335,0.0,0.0,39,0.00,,,0.00,meteohub,2013-12-16 19:32:00,
2013-12-16 13:37:00,46.9,31.8,32.22,North,0,0.0,0.0,39,0.00,,,0.00,meteohub,2013-12-16 19:37:00,
2013-12-16 13:42:00,46.9,31.8,32.22,NNW,337,0.0,0.0,39,0.00,,,0.00,meteohub,2013-12-16 19:42:00,
2013-12-16 13:47:00,47.1,32.5,32.22,NW,321,0.0,0.0,39,0.00,,,0.00,meteohub,2013-12-16 19:47:00,
2013-12-16 13:52:00,47.1,32.7,32.22,NNW,329,0.0,0.0,39,0.00,,,0.00,meteohub,2013-12-16 19:52:00,
2013-12-16 13:57:00,47.3,33.1,32.22,NNW,340,0.0,0.0,39,0.00,,,0.00,meteohub,2013-12-16 19:57:00,
2013-12-16 14:02:00,47.5,33.4,32.22,NNW,331,0.0,0.0,39,0.00,,,0.00,meteohub,2013-12-16 20:02:00,
2013-12-16 14:07:00,47.7,33.8,32.22,NW,322,0.0,0.0,39,0.00,,,0.00,meteohub,2013-12-16 20:07:00,
2013-12-16 14:12:00,47.8,33.6,32.22,NNW,346,0.0,0.0,39,0.00,,,0.00,meteohub,2013-12-16 20:12:00,
2013-12-16 14:17:00,48.0,32.7,32.22,NW,316,0.0,0.0,38,0.00,,,0.00,meteohub,2013-12-16 20:17:00,
2013-12-16 14:22:00,48.4,33.1,32.22,North,11,0.0,0.0,38,0.00,,,0.00,meteohub,2013-12-16 20:22:00,
2013-12-16 14:27:00,48.4,33.1,32.22,North,353,0.0,0.0,38,0.00,,,0.00,meteohub,2013-12-16 20:27:00,
2013-12-16 14:32:00,48.6,33.4,32.22,NNW,346,0.0,0.0,38,0.00,,,0.00,meteohub,2013-12-16 20:32:00,
2013-12-16 14:37:00,48.7,33.6,32.22,NNW,341,0.0,0.0,38,0.00,,,0.00,meteohub,2013-12-16 20:37:00,
2013-12-16 14:42:00,48.9,33.8,32.22,NNW,343,0.0,0.0,38,0.00,,,0.00,meteohub,2013-12-16 20:42:00,
2013-12-16 14:47:00,49.1,32.9,32.22,North,0,0.0,0.0,37,0.00,,,0.00,meteohub,2013-12-16 20:47:00,
2013-12-16 14:52:00,49.3,32.7,32.22,North,357,0.0,2.0,37,0.00,,,0.00,meteohub,2013-12-16 20:52:00,
2013-12-16 14:57:00,49.5,32.7,32.22,NNW,330,0.0,3.0,37,0.00,,,0.00,meteohub,2013-12-16 20:57:00,
2013-12-16 15:02:00,49.5,32.5,32.22,NW,321,0.0,3.0,37,0.00,,,0.00,meteohub,2013-12-16 21:02:00,
2013-12-16 15:07:00,49.5,32.4,32.22,North,7,2.0,3.0,37,0.00,,,0.00,meteohub,2013-12-16 21:07:00,
2013-12-16 15:12:00,49.5,32.4,32.22,NE,35,0.0,3.0,37,0.00,,,0.00,meteohub,2013-12-16 21:12:00,
2013-12-16 15:17:00,49.5,32.4,32.22,NNE,12,0.0,3.0,37,0.00,,,0.00,meteohub,2013-12-16 21:17:00,
2013-12-16 15:22:00,49.5,32.4,32.22,NNE,23,0.0,3.0,37,0.00,,,0.00,meteohub,2013-12-16 21:22:00,
2013-12-16 15:27:00,49.5,32.2,32.22,NNE,31,0.0,3.0,37,0.00,,,0.00,meteohub,2013-12-16 21:27:00,
2013-12-16 15:32:00,49.5,31.5,32.22,NE,34,3.0,3.0,37,0.00,,,0.00,meteohub,2013-12-16 21:32:00,
2013-12-16 15:37:00,49.3,30.9,32.22,North,11,0.0,3.0,37,0.00,,,0.00,meteohub,2013-12-16 21:37:00,
2013-12-16 15:42:00,48.9,30.7,32.22,NNE,21,0.0,3.0,37,0.00,,,0.00,meteohub,2013-12-16 21:42:00,
2013-12-16 15:47:00,48.7,30.7,32.22,NNE,21,0.0,3.0,37,0.00,,,0.00,meteohub,2013-12-16 21:47:00,
2013-12-16 15:52:00,48.6,30.4,32.22,NNE,32,0.0,3.0,37,0.00,,,0.00,meteohub,2013-12-16 21:52:00,
2013-12-16 15:57:00,48.2,29.5,32.22,NNE,33,2.0,3.0,37,0.00,,,0.00,meteohub,2013-12-16 21:57:00,
2013-12-16 16:02:00,48.0,29.3,32.22,North,4,3.0,3.0,38,0.00,,,0.00,meteohub,2013-12-16 22:02:00,
2013-12-16 16:07:00,47.5,28.8,32.22,NNE,26,0.0,4.0,38,0.00,,,0.00,meteohub,2013-12-16 22:07:00,
2013-12-16 16:12:00,46.9,28.8,32.22,NE,37,0.0,4.0,38,0.00,,,0.00,meteohub,2013-12-16 22:12:00,
2013-12-16 16:17:00,46.6,28.8,32.22,NNE,27,2.0,4.0,39,0.00,,,0.00,meteohub,2013-12-16 22:17:00,
2013-12-16 16:22:00,46.2,28.0,32.22,NE,41,0.0,3.0,39,0.00,,,0.00,meteohub,2013-12-16 22:22:00,
2013-12-16 16:27:00,45.9,28.0,32.22,NNE,25,0.0,3.0,40,0.00,,,0.00,meteohub,2013-12-16 22:27:00,
2013-12-16 16:32:00,45.3,27.5,32.22,NE,37,0.0,3.0,40,0.00,,,0.00,meteohub,2013-12-16 22:32:00,
2013-12-16 16:37:00,44.8,27.3,32.22,NE,54,2.0,3.0,41,0.00,,,0.00,meteohub,2013-12-16 22:37:00,
2013-12-16 16:42:00,44.2,27.1,32.22,NE,44,0.0,3.0,41,0.00,,,0.00,meteohub,2013-12-16 22:42:00,
2013-12-16 16:47:00,43.9,27.0,32.22,NNE,22,0.0,2.0,42,0.00,,,0.00,meteohub,2013-12-16 22:47:00,
2013-12-16 16:52:00,43.5,27.0,32.22,NNE,33,0.0,2.0,43,0.00,,,0.00,meteohub,2013-12-16 22:52:00,
2013-12-16 16:57:00,43.2,27.0,32.22,NE,42,0.0,3.0,44,0.00,,,0.00,meteohub,2013-12-16 22:57:00,
2013-12-16 17:02:00,42.8,26.6,32.22,NE,44,0.0,3.0,44,0.00,,,0.00,meteohub,2013-12-16 23:02:00,
2013-12-16 17:07:00,42.3,27.0,32.22,North,357,0.0,3.0,45,0.00,,,0.00,meteohub,2013-12-16 23:07:00,
2013-12-16 17:12:00,41.9,27.3,32.22,North,357,0.0,2.0,46,0.00,,,0.00,meteohub,2013-12-16 23:12:00,
2013-12-16 17:17:00,41.5,27.3,32.22,North,357,0.0,0.0,46,0.00,,,0.00,meteohub,2013-12-16 23:17:00,
2013-12-16 17:22:00,41.2,27.7,32.22,North,357,0.0,0.0,47,0.00,,,0.00,meteohub,2013-12-16 23:22:00,
2013-12-16 17:28:00,40.8,27.3,32.22,North,3,0.0,0.0,47,0.00,,,0.00,meteohub,2013-12-16 23:28:00,
2013-12-16 17:33:00,40.5,26.8,32.22,North,6,0.0,0.0,47,0.00,,,0.00,meteohub,2013-12-16 23:33:00,
2013-12-16 17:38:00,40.3,27.1,32.22,North,6,0.0,0.0,48,0.00,,,0.00,meteohub,2013-12-16 23:38:00,
2013-12-16 17:43:00,39.9,26.6,32.22,North,6,0.0,0.0,48,0.00,,,0.00,meteohub,2013-12-16 23:43:00,
2013-12-16 17:48:00,39.7,26.1,32.22,NNE,18,0.0,0.0,48,0.00,,,0.00,meteohub,2013-12-16 23:48:00,
2013-12-16 17:53:00,39.4,26.2,32.22,NE,43,0.0,0.0,49,0.00,,,0.00,meteohub,2013-12-16 23:53:00,
2013-12-16 17:58:00,39.2,26.4,32.22,NE,36,0.0,0.0,50,0.00,,,0.00,meteohub,2013-12-16 23:58:00,
2013-12-16 18:03:00,39.0,26.1,32.22,NE,35,0.0,0.0,50,0.00,,,0.00,meteohub,2013-12-17 00:03:00,
2013-12-16 18:08:00,38.8,26.4,32.22,NE,36,0.0,0.0,51,0.00,,,0.00,meteohub,2013-12-17 00:08:00,
2013-12-16 18:13:00,38.7,26.1,32.22,NNW,333,0.0,0.0,51,0.00,,,0.00,meteohub,2013-12-17 00:13:00,
2013-12-16 18:19:00,38.7,25.9,32.22,ENE,57,0.0,0.0,51,0.00,,,0.00,meteohub,2013-12-17 00:19:00,
2013-12-16 18:24:00,38.5,26.1,32.22,NE,49,0.0,0.0,52,0.00,,,0.00,meteohub,2013-12-17 00:24:00,
2013-12-16 18:29:00,38.3,26.2,32.22,NE,51,0.0,0.0,53,0.00,,,0.00,meteohub,2013-12-17 00:29:00,
2013-12-16 18:34:00,38.1,26.2,32.22,NE,53,0.0,0.0,54,0.00,,,0.00,meteohub,2013-12-17 00:34:00,
2013-12-16 18:39:00,37.9,26.1,32.22,NE,53,0.0,0.0,54,0.00,,,0.00,meteohub,2013-12-17 00:39:00,
2013-12-16 18:44:00,37.6,26.2,32.22,NE,54,0.0,0.0,55,0.00,,,0.00,meteohub,2013-12-17 00:44:00,
2013-12-16 18:49:00,37.4,26.4,32.22,NE,55,0.0,0.0,56,0.00,,,0.00,meteohub,2013-12-17 00:49:00,
2013-12-16 18:54:00,37.0,25.9,32.22,NE,56,0.0,0.0,56,0.00,,,0.00,meteohub,2013-12-17 00:54:00,
2013-12-16 18:59:00,36.9,26.1,32.22,NE,56,0.0,0.0,57,0.00,,,0.00,meteohub,2013-12-17 00:59:00,
2013-12-16 19:04:00,36.5,26.2,32.22,NE,56,0.0,0.0,57,0.00,,,0.00,meteohub,2013-12-17 01:04:00,
2013-12-16 19:09:00,36.3,25.9,32.22,NE,56,0.0,0.0,57,0.00,,,0.00,meteohub,2013-12-17 01:09:00,
2013-12-16 19:14:00,36.1,25.9,32.22,NE,55,0.0,0.0,58,0.00,,,0.00,meteohub,2013-12-17 01:14:00,
2013-12-16 19:20:00,36.1,26.1,32.22,NE,51,0.0,0.0,59,0.00,,,0.00,meteohub,2013-12-17 01:20:00,
2013-12-16 19:25:00,36.0,26.1,32.22,NE,53,0.0,2.0,59,0.00,,,0.00,meteohub,2013-12-17 01:25:00,
2013-12-16 19:27:00,35.8,26.1,32.22,NE,53,0.0,2.0,59,0.00,,,0.00,meteohub,2013-12-17 01:27:00,
2013-12-16 19:32:00,35.6,26.1,32.22,NE,53,0.0,0.0,59,0.00,,,0.00,meteohub,2013-12-17 01:32:00,
2013-12-16 19:37:00,35.6,25.9,32.22,NE,53,0.0,0.0,59,0.00,,,0.00,meteohub,2013-12-17 01:37:00,
2013-12-16 19:42:00,35.4,25.7,32.22,NE,54,0.0,0.0,59,0.00,,,0.00,meteohub,2013-12-17 01:42:00,
2013-12-16 19:47:00,35.4,26.1,32.22,NE,54,0.0,0.0,60,0.00,,,0.00,meteohub,2013-12-17 01:47:00,
2013-12-16 19:52:00,35.2,25.9,32.22,NE,53,0.0,0.0,60,0.00,,,0.00,meteohub,2013-12-17 01:52:00,
2013-12-16 19:57:00,35.1,25.9,32.22,NE,54,0.0,0.0,61,0.00,,,0.00,meteohub,2013-12-17 01:57:00,
2013-12-16 20:02:00,34.9,25.9,32.22,NE,53,0.0,0.0,61,0.00,,,0.00,meteohub,2013-12-17 02:02:00,
2013-12-16 20:07:00,34.5,25.9,32.22,NE,53,0.0,0.0,61,0.00,,,0.00,meteohub,2013-12-17 02:07:00,
2013-12-16 20:12:00,34.2,25.7,32.22,NE,53,0.0,0.0,61,0.00,,,0.00,meteohub,2013-12-17 02:12:00,
2013-12-16 20:17:00,33.8,25.3,32.22,NE,53,0.0,0.0,62,0.00,,,0.00,meteohub,2013-12-17 02:17:00,
2013-12-16 20:23:00,33.3,25.0,32.22,NE,54,0.0,0.0,62,0.00,,,0.00,meteohub,2013-12-17 02:23:00,
2013-12-16 20:28:00,32.7,25.0,32.22,NE,53,0.0,0.0,62,0.00,,,0.00,meteohub,2013-12-17 02:28:00,
2013-12-16 20:33:00,32.5,24.6,32.22,NE,53,0.0,0.0,62,0.00,,,0.00,meteohub,2013-12-17 02:33:00,
2013-12-16 20:38:00,32.2,24.8,32.22,NE,53,0.0,0.0,63,0.00,,,0.00,meteohub,2013-12-17 02:38:00,
2013-12-16 20:43:00,32.0,24.4,32.22,NE,54,0.0,0.0,63,0.00,,,0.00,meteohub,2013-12-17 02:43:00,
2013-12-16 20:48:00,31.3,24.6,32.22,NE,53,0.0,0.0,64,0.00,,,0.00,meteohub,2013-12-17 02:48:00,
2013-12-16 20:53:00,30.9,24.8,32.22,NE,53,0.0,0.0,65,0.00,,,0.00,meteohub,2013-12-17 02:53:00,
2013-12-16 20:58:00,30.7,24.8,32.22,NE,54,0.0,0.0,65,0.00,,,0.00,meteohub,2013-12-17 02:58:00,
2013-12-16 21:03:00,30.7,24.8,32.22,NE,53,0.0,0.0,66,0.00,,,0.00,meteohub,2013-12-17 03:03:00,
2013-12-16 21:08:00,30.6,24.6,32.22,NE,53,0.0,0.0,66,0.00,,,0.00,meteohub,2013-12-17 03:08:00,
2013-12-16 21:13:00,30.6,25.2,32.22,NE,53,0.0,0.0,67,0.00,,,0.00,meteohub,2013-12-17 03:13:00,
2013-12-16 21:18:00,30.4,24.8,32.22,ENE,58,0.0,0.0,67,0.00,,,0.00,meteohub,2013-12-17 03:18:00,
2013-12-16 21:24:00,30.4,25.2,32.22,ENE,58,0.0,0.0,68,0.00,,,0.00,meteohub,2013-12-17 03:24:00,
2013-12-16 21:29:00,30.4,25.2,32.22,ENE,58,0.0,0.0,68,0.00,,,0.00,meteohub,2013-12-17 03:29:00,
2013-12-16 21:34:00,30.2,24.6,32.22,ENE,59,0.0,0.0,68,0.00,,,0.00,meteohub,2013-12-17 03:34:00,
2013-12-16 21:39:00,30.2,24.6,32.22,ENE,58,0.0,0.0,68,0.00,,,0.00,meteohub,2013-12-17 03:39:00,
2013-12-16 21:44:00,30.0,24.6,32.22,ENE,58,0.0,0.0,68,0.00,,,0.00,meteohub,2013-12-17 03:44:00,
2013-12-16 21:49:00,29.7,24.6,32.22,ENE,59,0.0,0.0,69,0.00,,,0.00,meteohub,2013-12-17 03:49:00,
2013-12-16 21:54:00,29.5,24.6,32.22,ENE,58,0.0,0.0,69,0.00,,,0.00,meteohub,2013-12-17 03:54:00,
2013-12-16 21:59:00,29.3,24.3,32.22,ENE,58,0.0,0.0,69,0.00,,,0.00,meteohub,2013-12-17 03:59:00,
2013-12-16 22:04:00,29.3,24.4,32.22,ENE,58,0.0,0.0,69,0.00,,,0.00,meteohub,2013-12-17 04:04:00,
2013-12-16 22:09:00,29.3,24.4,32.22,ENE,59,0.0,0.0,70,0.00,,,0.00,meteohub,2013-12-17 04:09:00,
2013-12-16 22:14:00,29.1,24.1,32.22,ENE,58,0.0,0.0,70,0.00,,,0.00,meteohub,2013-12-17 04:14:00,
2013-12-16 22:19:00,28.8,24.3,32.22,ENE,59,0.0,0.0,70,0.00,,,0.00,meteohub,2013-12-17 04:19:00,
2013-12-16 22:25:00,28.8,24.6,32.22,ENE,59,0.0,0.0,71,0.00,,,0.00,meteohub,2013-12-17 04:25:00,
2013-12-16 22:30:00,28.8,24.4,32.22,ENE,59,0.0,0.0,71,0.00,,,0.00,meteohub,2013-12-17 04:30:00,
2013-12-16 22:35:00,28.9,24.3,32.22,ENE,75,0.0,0.0,72,0.00,,,0.00,meteohub,2013-12-17 04:35:00,
2013-12-16 22:40:00,29.1,24.8,32.22,SSW,192,0.0,0.0,73,0.00,,,0.00,meteohub,2013-12-17 04:40:00,
2013-12-16 22:45:00,29.3,25.0,32.22,SSW,192,0.0,0.0,73,0.00,,,0.00,meteohub,2013-12-17 04:45:00,
2013-12-16 22:50:00,29.5,24.6,32.22,SSW,212,0.0,0.0,73,0.00,,,0.00,meteohub,2013-12-17 04:50:00,
2013-12-16 22:55:00,29.5,25.0,32.22,SSW,211,0.0,2.0,74,0.00,,,0.00,meteohub,2013-12-17 04:55:00,
2013-12-16 23:00:00,29.5,25.3,32.22,SSW,211,0.0,2.0,74,0.00,,,0.00,meteohub,2013-12-17 05:00:00,
2013-12-16 23:01:00,29.5,25.3,32.22,SSW,211,0.0,2.0,74,0.00,,,0.00,meteohub,2013-12-17 05:01:00,
2013-12-16 23:02:00,29.5,25.3,32.22,SSW,211,0.0,2.0,74,0.00,,,0.00,meteohub,2013-12-17 05:02:00,
2013-12-16 23:03:00,29.5,25.3,32.22,SSW,211,0.0,2.0,74,0.00,,,0.00,meteohub,2013-12-17 05:03:00,
2013-12-16 23:07:00,29.7,25.3,32.22,SSW,211,0.0,0.0,74,0.00,,,0.00,meteohub,2013-12-17 05:07:00,
2013-12-16 23:12:00,29.5,25.3,32.22,SSW,211,0.0,0.0,74,0.00,,,0.00,meteohub,2013-12-17 05:12:00,
2013-12-16 23:17:00,29.5,25.5,32.22,SSW,211,0.0,0.0,74,0.00,,,0.00,meteohub,2013-12-17 05:17:00,
2013-12-16 23:22:00,29.5,25.5,32.22,SSW,211,0.0,0.0,74,0.00,,,0.00,meteohub,2013-12-17 05:22:00,
2013-12-16 23:28:00,29.5,25.5,32.22,SSW,211,0.0,0.0,74,0.00,,,0.00,meteohub,2013-12-17 05:28:00,
2013-12-16 23:33:00,29.5,25.5,32.22,SSW,211,0.0,0.0,74,0.00,,,0.00,meteohub,2013-12-17 05:33:00,
2013-12-16 23:38:00,29.5,25.5,32.22,SSW,211,0.0,0.0,74,0.00,,,0.00,meteohub,2013-12-17 05:38:00,
2013-12-16 23:43:00,29.5,25.5,32.22,SSW,211,0.0,0.0,74,0.00,,,0.00,meteohub,2013-12-17 05:43:00,
2013-12-16 23:48:00,29.7,25.7,32.22,SSW,211,0.0,0.0,74,0.00,,,0.00,meteohub,2013-12-17 05:48:00,
2013-12-16 23:53:00,29.7,25.9,32.22,SSW,211,0.0,0.0,75,0.00,,,0.00,meteohub,2013-12-17 05:53:00,
2013-12-16 23:58:00,29.5,25.7,32.22,SSW,211,0.0,0.0,75,0.00,,,0.00,meteohub,2013-12-17 05:58:00,